Regional Weather Roundup
Issued by NWS

Home | Current Version | Previous Version | Graphics & Text | Print | Product List | Glossary On
Versions: 1 2 3 4 5 6 7 8 9 10 11 12 13 14 15 16 17 18 19 20 21 22 23 24 25 26 27
000
ASUS45 KSLC 301410
RWRUT

UTAH REGIONAL WEATHER ROUNDUP
NATIONAL WEATHER SERVICE SALT LAKE CITY UT
800 AM MDT THU OCT 30 2014

UTZ001>011-023>025-301500-

NORTHERN UTAH

CITY           SKY/WX    TMP DP  RH WIND       PRES   REMARKS
BRIGHAM CITY   CLEAR     34  28  79 CALM      30.29S
HILL AFB       CLEAR     43  26  52 SE21G28   30.27S
LOGAN          CLEAR     30  27  88 CALM      30.30F
OGDEN          CLEAR     41  27  57 S6        30.26F
PROVO AIRPORT  CLEAR     37  27  65 CALM      30.30S
SALT LAKE CITY PTCLDY    39  29  67 SE7       30.27S WCI  34
VERNAL         PTCLDY    31  23  72 NW3       30.38R
WENDOVER       PTCLDY    36  25  64 CALM      30.27S
HEBER CITY     PTCLDY    23  19  86 CALM      30.36S
WEST JORDAN    CLEAR     45  28  53 SW7       30.28S

$$

UTZ012>022-026-027-301500-

SOUTHERN/CENTRAL UTAH

CITY           SKY/WX    TMP DP  RH WIND       PRES   REMARKS
BLANDING       PTCLDY    40  15  36 N3        30.40R
BRYCE CANYON   PTCLDY    27  17  66 W10       30.40S WCI  17
CEDAR CITY     PTCLDY    33  19  56 SE3       30.26S
DELTA          MOCLDY    38  20  48 NE5       30.26S WCI  35
HANKSVILLE       N/A     30  12  47 CALM      30.35S
MILFORD        PTCLDY    31  17  56 SW5       30.27R WCI  26
MOAB/CYNLANDS  CLEAR     40  16  37 CALM      30.31R
PRICE          PTCLDY    35  18  49 NE5       30.34R WCI  31
ST GEORGE      MOSUNNY   46  16  29 CALM      30.21R
KANAB            N/A     43  19  39 NW16      30.29F

$$

REGIONAL REPORTS     COLORADO/ARIZONA

CITY           SKY/WX    TMP DP  RH WIND       PRES   REMARKS
CRAIG, CO      PTCLDY    24  19  81 CALM      30.40R
GRAND JUNCTION CLEAR     35  21  56 E7        30.35R WCI  29
RIFLE          PTCLDY    30  19  63 CALM      30.41R
MONTROSE       CLEAR     32  21  64 S8        30.41R WCI  25
CORTEZ         CLEAR     29  19  66 E6        30.35R WCI  23
PAGE, AZ       PTCLDY    45  23  42 CALM      30.28R
GRAND CANYON   PTCLDY    26  17  68 CALM      30.34S
KINGMAN        CLEAR     51  29  42 NE7       30.14R
FLAGSTAFF      PTCLDY    27  21  78 CALM      30.36R

$$

REGIONAL REPORTS    NEVADA/IDAHO/WYOMING

CITY           SKY/WX    TMP DP  RH WIND       PRES   REMARKS
LAS VEGAS, NV  PTCLDY    58  21  24 SW5       30.06R
ELY            PTCLDY    29  16  58 S13       30.30S WCI  19
ELKO           MOCLDY    30  20  66 CALM      30.24S
POCATELLO, ID  PTCLDY    37  30  75 N5        30.27S WCI  33
BURLEY         CLEAR     32  28  85 CALM      30.21S
EVANSTON, WY   PTCLDY    39  22  50 E5        30.37F
ROCK SPRINGS   CLOUDY    30  26  85 S9        30.38S WCI  22

$$



USA.gov is the U.S. government's official web portal to all federal, state and local government web resources and services.